Location: ?????????
(38.4921°N, 22.9787°E)
Time: 03:48:08
(UTC+00:00)

Cosmos 1726 Rocket - Pass Details

Date: 08 December 2025
Orbit: 554 x 663 km, 82.5° (Epoch: 21 January)

Event Time Altitude Azimuth Distance (km) Brightness Sun altitude
Exits shadow 03:30:09 10° 5° (N) 2,001 6.1 -23.3°
Reaches altitude 10° 03:30:14 10° 6° (N) 1,970 6.1 -23.3°
Maximum altitude 03:34:24 45° 79° (E) 815 4.5 -22.5°
Drops below altitude 10° 03:38:25 10° 153° (SSE) 1,892 6.5 -21.8°
Sets 03:40:38 0° 159° (SSE) 2,770 7.4 -21.3°
